TimeMDT,TemperatureF,Dew PointF,Humidity,Sea Level PressureIn,VisibilityMPH,Wind Direction,Wind SpeedMPH,Gust SpeedMPH,PrecipitationIn,Events,Conditions,WindDirDegrees,DateUTC
12:53 AM,64.0,37.9,38,29.87,10.0,North,10.4,-,N/A,,Clear,10,2012-06-24 06:53:00
1:53 AM,60.1,37.0,42,29.87,10.0,NNE,3.5,-,N/A,,Clear,30,2012-06-24 07:53:00
2:53 AM,60.1,37.9,44,29.89,10.0,WNW,5.8,-,N/A,,Clear,290,2012-06-24 08:53:00
3:53 AM,57.9,36.0,44,29.91,10.0,Calm,Calm,-,N/A,,Clear,0,2012-06-24 09:53:00
4:53 AM,55.0,36.0,49,29.93,10.0,ENE,3.5,-,N/A,,Clear,70,2012-06-24 10:53:00
5:53 AM,54.0,37.0,53,29.96,10.0,Calm,Calm,-,N/A,,Clear,0,2012-06-24 11:53:00
6:53 AM,57.9,37.0,46,29.95,10.0,Calm,Calm,-,N/A,,Clear,0,2012-06-24 12:53:00
7:53 AM,66.9,37.0,33,29.96,10.0,Calm,Calm,-,N/A,,Clear,0,2012-06-24 13:53:00
8:53 AM,75.0,37.0,25,29.95,10.0,Calm,Calm,-,N/A,,Clear,0,2012-06-24 14:53:00
9:53 AM,82.0,37.0,20,29.94,8.0,East,6.9,-,N/A,,Clear,90,2012-06-24 15:53:00
10:53 AM,86.0,35.1,16,29.93,10.0,SE,9.2,-,N/A,,Clear,140,2012-06-24 16:53:00
11:53 AM,87.1,33.1,15,29.93,10.0,NE,6.9,-,N/A,,Clear,50,2012-06-24 17:53:00
12:53 PM,90.0,30.9,12,29.92,10.0,Variable,4.6,-,N/A,,Clear,0,2012-06-24 18:53:00
1:53 PM,91.0,30.9,12,29.90,10.0,WSW,10.4,-,N/A,,Clear,250,2012-06-24 19:53:00
2:53 PM,91.0,30.0,11,29.87,10.0,West,6.9,-,N/A,,Clear,280,2012-06-24 20:53:00
3:53 PM,91.9,26.1,9,29.86,10.0,North,8.1,19.6,N/A,,Clear,350,2012-06-24 21:53:00
4:53 PM,91.0,19.9,7,29.86,10.0,NE,6.9,-,N/A,,Clear,40,2012-06-24 22:53:00
5:38 PM,87.8,28.4,12,30.15,10.0,ESE,18.4,25.3,N/A,,Clear,120,2012-06-24 23:38:00
5:53 PM,87.1,27.0,11,29.87,10.0,East,12.7,17.3,N/A,,Partly Cloudy,100,2012-06-24 23:53:00
6:53 PM,91.0,25.0,9,29.83,10.0,North,6.9,-,N/A,,Clear,10,2012-06-25 00:53:00
7:53 PM,87.1,27.0,11,29.81,10.0,NNE,3.5,-,N/A,,Clear,20,2012-06-25 01:53:00
8:53 PM,79.0,28.9,16,29.83,10.0,Calm,Calm,-,N/A,,Clear,0,2012-06-25 02:53:00
9:53 PM,73.9,30.9,21,29.84,10.0,SSW,4.6,-,N/A,,Clear,200,2012-06-25 03:53:00
10:53 PM,84.0,28.0,13,29.82,10.0,East,12.7,28.8,N/A,,Partly Cloudy,100,2012-06-25 04:53:00
11:53 PM,77.0,30.9,19,29.85,10.0,ENE,10.4,-,N/A,,Clear,70,2012-06-25 05:53:00